Flag for USA

Past Weather in Louisville Convention Historical Marker, Kentucky, USA — Yesterday and Last 2 Weeks

Now
76 °F

Light rain. Low clouds.


Feels Like: 76 °F
Forecast: 87 / 75 °F
Wind: 10 mph from Southwest

Location: Standiford Field

Current Time: Jul 17, 2019 at 9:03:29 am

Latest Report: Jul 17, 2019 at 7:56 am


Visibility: 10 mi

Pressure: 29.94 "Hg

Humidity: 91%

Dew Point: 73 °F

Location of Louisville Convention Historical MarkerLocation

Past Weather in Louisville Convention Historical Marker — Graph

°F

Louisville Convention Historical Marker Temperature Yesterday

Maximum temperature yesterday: 90 °F (at 12:56 pm)
Minimum temperature yesterday: 76 °F (at 3:56 am)
Average temperature yesterday: 82 °F

High & Low Weather Summary for the Past Weeks

 TemperatureHumidityPressure
High93 °F (Jul 2, 4:56 pm)91% (Jul 17, 7:56 am)30.16 "Hg (Jul 17, 7:56 am)
Low68 °F (Jul 13, 6:56 am)31% (Jul 12, 2:56 pm)29.81 "Hg (Jul 11, 5:56 pm)
Average82 °F66%29.97 "Hg
* Reported Jul 2 7:56 am — Jul 17 7:56 am, Louisville Convention Historical Marker. Weather by CustomWeather, © 2019

Note: Actual official high and low records may vary slightly from our data, if they occured in-between our weather recording intervals... More about our weather records

Advertising

Louisville Convention Historical Marker Weather History for the Previous 24 Hours

Scroll right to see more
 ConditionsComfort  
Time TempWeatherWind HumidityBarometerVisibility
7:56 am
Wed, Jul 17
76 °FLight rain. Low clouds.10 mph91%29.94 "Hg10 mi
6:56 am76 °FLight rain. Overcast.9 mph88%29.92 "Hg10 mi
6:25 am75 °FLight rain. Low clouds.7 mph90%29.94 "Hg7 mi
6:07 am75 °FLight rain. Fog.9 mph90%29.94 "Hg6 mi
5:56 am76 °FLight rain. Fog.8 mph88%29.92 "Hg6 mi
5:37 am76 °FLight rain. Mostly cloudy.9 mph88%29.94 "Hg9 mi
5:08 am77 °FOvercast.8 mph82%29.93 "Hg10 mi
3:58 am76 °FOvercast.12 mph85%29.93 "Hg10 mi
3:23 am76 °FMostly cloudy.10 mph85%29.93 "Hg10 mi
2:56 am76 °FOvercast.10 mph85%29.92 "Hg10 mi
2:31 am76 °FLight rain. Mostly cloudy.8 mph85%29.95 "Hg10 mi
1:56 am77 °FOvercast.10 mph79%29.94 "Hg10 mi
1:31 am77 °FPassing clouds.13 mph79%29.96 "Hg10 mi
12:56 am77 °FPassing clouds.10 mph79%29.94 "Hg10 mi
11:56 pm
Tue, Jul 16
76 °FPartly cloudy.13 mph82%29.94 "Hg10 mi
10:56 pm77 °FPassing clouds.12 mph79%29.95 "Hg10 mi
9:56 pm78 °FPassing clouds.17 mph79%29.94 "Hg10 mi
8:56 pm79 °FLight rain. Partly sunny.15 mph79%29.93 "Hg7 mi
7:56 pm79 °FPartly sunny.9 mph82%29.92 "Hg10 mi
6:56 pm87 °FBroken clouds.14 mph55%29.91 "Hg10 mi
5:56 pm90 °FBroken clouds.17 mph50%29.92 "Hg10 mi
4:56 pm89 °FBroken clouds.17 mph50%29.93 "Hg10 mi
3:56 pm90 °FPartly sunny.18 mph47%29.95 "Hg10 mi
2:56 pm89 °FPartly sunny.21 mph52%29.97 "Hg10 mi
1:56 pm90 °FBroken clouds.20 mph50%29.98 "Hg10 mi
12:56 pm90 °FBroken clouds.17 mph54%30.00 "Hg10 mi
11:56 am89 °FLight rain. Broken clouds.16 mph55%30.01 "Hg10 mi
10:56 am85 °FPartly sunny.13 mph63%30.01 "Hg10 mi
9:56 am83 °FBroken clouds.12 mph68%30.02 "Hg10 mi
Weather by CustomWeather, © 2019

See weather overview